Regional Weather Roundup
Issued by NWS

Home | Current Version | Previous Version | Text Only | Print | Product List | Glossary Off
Versions: 1 2 3 4 5 6 7 8 9 10 11 12 13 14 15 16 17 18 19 20 21 22 23 24 25 26 27 28 29 30 31 32 33 34 35 36 37 38 39 40 41 42 43 44 45 46 47 48 49 50

000
ASUS43 KDTX 252010
RWRMI
MICHIGAN HOURLY REGIONAL WEATHER ROUNDUP
NATIONAL WEATHER SERVICE DETROIT/PONTIAC MI
400 PM EDT FRI JUL 25 2014

NOTE: "FAIR" INDICATES FEW OR NO CLOUDS BELOW 12,000 FEET WITH NO
SIGNIFICANT WEATHER AND/OR OBSTRUCTION TO VISIBILITY.

MIZ047>049-052>055-059>063-066>070-074>076-081>083-252100-
SOUTHEAST LOWER MICHIGAN

CITY           SKY/WX    TMP DP  RH WIND       PRES   REMARKS
ADRIAN         MOSUNNY   78  52  40 SW13      29.99F
ALMA           CLOUDY    74  53  46 SW9       29.98S
ANN ARBOR      MOSUNNY   79  50  36 W9G17     29.98F
BAD AXE        MOSUNNY   75  49  40 W10       29.97S
DETROIT CITY   PTSUNNY   78  53  41 SW12      29.98F
DETROIT        PTSUNNY   77  52  41 S13       29.99F
FLINT          PTSUNNY   77  51  40 W6        29.98F
GROSSE ILE     PTSUNNY   75  55  50 S17       29.98F
HILLSDALE      MOSUNNY   76  54  44 SW7       30.00F
HOWELL         PTSUNNY   75  49  39 SW8       29.99F

CITY           SKY/WX    TMP DP  RH WIND       PRES   REMARKS
JACKSON        MOSUNNY   75  54  47 SW7       29.99F
LAMBERTVILLE   MOSUNNY   77  52  41 S6G17     30.00F
LANSING        PTSUNNY   75  54  47 SW6       29.98F
LAPEER         NOT AVBL
MASON          MOSUNNY   74  53  47 S5        29.99S
MONROE         MOSUNNY   77  52  41 SW10G18   29.98F
MT. CLEMENS    PTSUNNY   76  53  44 SW7       29.97F
PONTIAC        CLOUDY    77  50  38 S12G18    29.98F
PORT HOPE        N/A     76  51  41 SW8       29.95F
PORT HURON     PTSUNNY   75  55  50 S9        29.98F
TRI CITIES     PTSUNNY   76  54  46 SW10      29.97F
YPSILANTI      MOSUNNY   81  52  36 S12       29.99F
$$
MIZ043>046-050>051-056>058-064>065-071>073-077>080-252100-
SOUTHWEST LOWER MICHIGAN

CITY           SKY/WX    TMP DP  RH WIND       PRES   REMARKS
BATTLE CREEK   PTSUNNY   74  48  39 SW12      30.00S
BENTON HARBOR  CLOUDY    72  58  61 E5        29.96F
BIG RAPIDS     CLOUDY    72  55  54 SW7       29.96F
COLDWATER      PTSUNNY   74  53  48 SW9G18    30.00R
HOLLAND        CLOUDY    73  55  53 SW12      29.99S
GRAND RAPIDS   CLOUDY    76  55  48 SW9       29.98S
KALAMAZOO      PTSUNNY   75  54  47 SW9       29.98F
MARSHALL       PTSUNNY   73  53  49 SW8       29.99R
MUSKEGON       CLOUDY    73  56  54 SW14      29.97F
$$
MIZ016>042-252100-
NORTHERN LOWER MICHIGAN

CITY           SKY/WX    TMP DP  RH WIND       PRES   REMARKS
ALPENA         PTSUNNY   77  56  48 SW12      29.91F
BEAVER ISLAND  MOSUNNY   70  58  65 SW18      29.92S
BELLAIRE       PTSUNNY   76  56  48 SW3       29.91F
CADILLAC       CLOUDY    71  58  64 SW10      29.96F
CHARLEVOIX     PTSUNNY   72  58  60 W15       29.95S
FRANKFORT      LGT RAIN  67  53  59 S9G16     29.94S
GAYLORD        PTSUNNY   75  55  49 W12       29.94F
GRAYLING       PTSUNNY   74  55  51 SW8       29.95S
HARBOR SPRINGS PTSUNNY   76  58  52 W7        29.91F
HOUGHTON LAKE  PTSUNNY   75  57  53 SW10      29.96F
MANISTEE       CLOUDY    68  54  60 SW7       29.96S
OSCODA         PTSUNNY   76  52  43 S14G21    29.94R
PELLSTON       PTSUNNY   74  58  57 W7G17     29.91F
TRAVERSE CITY  LGT RAIN  73  57  57 VRB5      29.92S
$$
MIZ007>008-015-252100-
EASTERN UPPER MICHIGAN

CITY           SKY/WX    TMP DP  RH WIND       PRES   REMARKS
KINROSS        PTSUNNY   75  57  53 SW10      29.88F
MACKINAC ISLAN CLOUDY    68  57  68 W10G16    29.90S
NEWBERRY       CLOUDY    73  60  61 SW10G21   29.87F
S. S. MARIE    MOSUNNY   79  54  41 S14G21    29.85F
$$
MIZ004>006-011>014-085-252100-
CENTRAL UPPER MICHIGAN

CITY           SKY/WX    TMP DP  RH WIND       PRES   REMARKS
MANISTIQUE     PTSUNNY   64  57  79 S13G18    29.88F
ESCANABA       PTSUNNY   72  57  60 S14       29.87F
MENOMINEE      CLOUDY    73  59  60 SW12      29.87F
SAWYER-GWINN   PTSUNNY   73  55  53 SW12      29.86S
$$
MIZ001>003-009>011-084-252100-
WESTERN UPPER MICHIGAN

CITY           SKY/WX    TMP DP  RH WIND       PRES   REMARKS
IRON MOUNTAIN  PTSUNNY   73  59  61 SW12G21   29.86F
HOUGHTON       CLOUDY    71  61  70 W14       29.82R
COPPER HARBOR    N/A     66  58  75 CALM      29.80F
$$

ABBREVIATIONS USED IN REMARKS
   TC - TEMPERATURE IN CELSIUS
  WCI - WIND CHILL INDEX
   HX - HEAT INDEX
  VSB - VISIBILITY




USA.gov is the U.S. government's official web portal to all federal, state and local government web resources and services.